Location: Valley of Enchantment
(34.2467°N, 117.3048°W)
Time: 03:54:02
(UTC+00:00)

Cosmos 2333 Rocket - Pass Details

Date: 10 September 2024
Orbit: 840 x 862 km, 70.8° (Epoch: 09 October)

Event Time Altitude Azimuth Distance (km) Brightness Sun altitude
Rises 12:19:38 0° 334° (NNW) 3,429 5.3 -14.9°
Reaches altitude 10° 12:22:07 10° 331° (NNW) 2,486 4.5 -14.5°
Maximum altitude 12:27:43 61° 253° (WSW) 960 2.2 -13.3°
Drops below altitude 10° 12:33:16 10° 174° (S) 2,457 4.5 -12.2°
Sets 12:35:44 0° 170° (S) 3,385 5.3 -11.7°
